Flag for Denmark Weather past 2 weeks in Aalborg, Denmark

Now
48 °F

Passing clouds.


Feels Like: 42 °F
Forecast: 45 / 51 °F
Wind: 17 mph from West

Location: Aalborg Airport

Current Time: May 27, 2015 at 5:55:15 AM

Latest Report: May 27, 2015 at 5:20 AM


Visibility: N/A

Pressure: 29.95 "Hg

Humidity: 82%

Dew point: 43 °F

Location of AalborgLocation

Historic Weather in Aalborg — Graph

°F

Aalborg temperature yesterday

Maximum temperature yesterday: 57 °F (at 1:20 PM)
Minimum temperature yesterday: 48 °F (at 12:20 AM)
Average temperature yesterday: 52 °F

Past Weeks' High & Low Weather Summary

 TemperatureHumidityPressure
High61 °F (May 14, 12:50 PM)100% (May 12, 4:50 AM)30.18 "Hg (May 12, 4:50 AM)
Low37 °F (May 15, 4:20 AM)45% (May 15, 12:50 PM)29.39 "Hg (May 19, 2:20 AM)
Average51 °F80%29.88 "Hg
* Reported May 12 4:20 AM — May 27 4:20 AM, Aalborg, Weather by CustomWeather, © 2015

Note: Actual official high and low records may vary slightly from our data, if they occured in-between our weather recording intervals... More about our weather records

Advertising

Aalborg weather history for previous 24 hours

 ConditionsComfort  
Time TempWeatherWind HumidityBarometerVisibility
4:20 AM
Wed, May 27
48 °FPassing clouds.16 mph82%29.95 "HgN/A
3:50 AM48 °FPassing clouds.15 mph87%29.95 "HgN/A
3:20 AM48 °FPassing clouds.14 mph87%29.95 "HgN/A
2:50 AM48 °FPassing clouds.12 mph94%29.95 "HgN/A
2:20 AM48 °FPassing clouds.13 mph87%29.95 "HgN/A
1:50 AM48 °FPassing clouds.7 mph87%29.95 "HgN/A
1:20 AM48 °FPassing clouds.13 mph82%29.95 "HgN/A
12:50 AM48 °FPassing clouds.12 mph82%29.95 "HgN/A
12:20 AM48 °FPassing clouds.15 mph82%29.95 "HgN/A
11:20 PM
Tue, May 26
48 °FPassing clouds.14 mph82%29.95 "HgN/A
10:50 PM48 °FPassing clouds.14 mph82%29.95 "HgN/A
10:20 PM50 °FScattered clouds.16 mph82%29.95 "HgN/A
9:50 PM50 °FPassing clouds.16 mph76%29.95 "HgN/A
9:20 PM50 °FPassing clouds.18 mph76%29.95 "HgN/A
8:50 PM52 °FPassing clouds.20 mph72%29.92 "HgN/A
8:20 PM52 °FPassing clouds.17 mph72%29.92 "HgN/A
7:50 PM52 °FPassing clouds.21 mph72%29.92 "HgN/A
7:20 PM54 °FPassing clouds.20 mph67%29.92 "HgN/A
6:50 PM54 °FPassing clouds.20 mph67%29.92 "HgN/A
6:20 PM54 °FPassing clouds.21 mph72%29.92 "HgN/A
5:50 PM54 °FScattered clouds.20 mph67%29.92 "HgN/A
5:20 PM55 °FPassing clouds.17 mph67%29.89 "HgN/A
4:50 PM55 °FPassing clouds.17 mph67%29.89 "HgN/A
4:20 PM55 °FPassing clouds.16 mph63%29.89 "HgN/A
3:50 PM57 °FPassing clouds.17 mph63%29.89 "HgN/A
3:20 PM57 °FPassing clouds.16 mph59%29.89 "HgN/A
2:50 PM57 °FPassing clouds.18 mph63%29.89 "HgN/A
2:20 PM57 °FPassing clouds.17 mph59%29.86 "HgN/A
1:50 PM57 °FPassing clouds.16 mph59%29.86 "HgN/A
1:20 PM57 °FPassing clouds.16 mph63%29.86 "HgN/A
12:50 PM55 °FPassing clouds.16 mph63%29.86 "HgN/A
12:20 PM55 °FPassing clouds.14 mph63%29.86 "HgN/A
11:50 AM55 °FPassing clouds.16 mph63%29.86 "HgN/A
11:20 AM54 °FPassing clouds.16 mph67%29.83 "HgN/A
10:50 AM54 °FPassing clouds.15 mph72%29.83 "HgN/A
10:20 AM54 °FScattered clouds.16 mph72%29.83 "HgN/A
9:50 AM54 °FScattered clouds.16 mph67%29.83 "HgN/A
9:20 AM52 °FScattered clouds.16 mph72%29.83 "HgN/A
8:50 AM52 °FScattered clouds.16 mph77%29.83 "HgN/A
8:20 AM52 °FScattered clouds.17 mph77%29.83 "HgN/A
7:50 AM50 °FScattered clouds.12 mph82%29.83 "HgN/A
7:20 AM50 °FScattered clouds.14 mph82%29.83 "HgN/A
6:50 AM48 °FScattered clouds.15 mph87%29.80 "HgN/A
6:20 AM48 °FScattered clouds.15 mph87%29.80 "HgN/A
5:50 AM48 °FScattered clouds.15 mph87%29.80 "HgN/A
5:20 AM48 °FPassing clouds.14 mph87%29.80 "HgN/A
Weather by CustomWeather, © 2015

See weather overviewHow to use our weather pages